This is the latest recevied weather packets stored in our database for station/object AI4Y. If no packets are shown the sender has not sent any weather packets the latest 10 day(s).
| Time | Temp. | Humidity | Pressure | Rain* | Wind** | Luminosity | Snow |
|---|---|---|---|---|---|---|---|
| 1777872636 | 7.22° C | 83% | 1016.8 hPa | 0 mm | - | 0 W/m² | - |
| 1777865418 | 6.11° C | 80% | 1016.6 hPa | 0 mm | - | 0 W/m² | - |
| 1777855217 | 12.78° C | 48% | 1015.5 hPa | 0 mm | - | 0 W/m² | - |
| 1777852818 | 17.22° C | 34% | 1015.5 hPa | 0 mm | - | 16 W/m² | - |
| 1777849239 | 20° C | 27% | 1015 hPa | 0 mm | - | 195 W/m² | - |
| 1777848017 | 20° C | 26% | 1015.1 hPa | 0 mm | - | 270 W/m² | - |
| 1777842617 | 20° C | 28% | 1015.7 hPa | 0 mm | - | 594 W/m² | - |
| 1777841418 | 19.44° C | 28% | 1015.8 hPa | 0 mm | - | 658 W/m² | - |
| 1777840218 | 19.44° C | 30% | 1015.8 hPa | 0 mm | - | 722 W/m² | - |
| 1777834816 | 17.78° C | 32% | 1017.1 hPa | 0 mm | - | 921 W/m² | - |
| 1777828218 | 15° C | 37% | 1018.5 hPa | 0 mm | - | 968 W/m² | - |
| 1777826418 | 14.44° C | 38% | 1019 hPa | 0 mm | - | 938 W/m² | - |
| 1777824016 | 13.33° C | 41% | 1019.5 hPa | 0 mm | - | 872 W/m² | - |
| 1777821017 | 12.22° C | 42% | 1019.6 hPa | 0 mm | - | 753 W/m² | - |
| 1777819217 | 11.11° C | 45% | 1019.9 hPa | 0 mm | - | 669 W/m² | - |
| 1777818617 | 11.11° C | 47% | 1019.8 hPa | 0 mm | - | 637 W/m² | - |
| 1777818041 | 11.11° C | 45% | 1019.7 hPa | 0 mm | - | 608 W/m² | - |
| 1777815018 | 9.44° C | 50% | 1019.7 hPa | 0 mm | - | 442 W/m² | - |
| 1777813819 | 8.89° C | 52% | 1019.6 hPa | 0 mm | - | 374 W/m² | - |
| 1777813239 | 8.89° C | 53% | 1019.5 hPa | 0 mm | - | 339 W/m² | - |
| 1777811436 | 7.78° C | 59% | 1019.2 hPa | 0 mm | - | 237 W/m² | - |
| 1777810216 | 6.67° C | 65% | 1019.1 hPa | 0 mm | - | 174 W/m² | - |
| 1777809616 | 6.11° C | 70% | 1019.1 hPa | 0 mm | - | 146 W/m² | - |
| 1777808416 | 4.44° C | 80% | 1018.9 hPa | 0 mm | - | 97 W/m² | - |
| 1777807217 | 2.22° C | 90% | 1018.7 hPa | 0 mm | - | 59 W/m² | - |
* Rain latest hour (hover to see other rain measurements)
** Current wind speed in m/s (hover to see current wind gust speed)